User: anonymous   Login
Location: Fazenda Monte Alegre
(4.8500°S, 38.0333°W)
Time: 03:20:18
(UTC+00:00)
Language:

CZ-2C R/B - Orbit

View from above orbital plane
View from above orbital plane
View from above satellite
View from above satellite

Ground track
Ground track

The orbit data is extracted from the following two-line orbital elements,

1 31114U 07010B   20338.49540548  .00000037  00000-0  35519-4 0  9990
2 31114  98.2404 179.8638 0060530 133.5982 227.0241 14.19339288707006
Epoch (UTC): 03 December 2020 11:53:23
Eccentricity: 0.0060530
inclination: 98.2404°
perigee height: 784 km
apogee height: 871 km
right ascension of ascending node: 179.8638°
argument of perigee: 133.5982°
revolutions per day: 14.19339288
mean anomaly at epoch: 227.0241°
orbit number at epoch: 70700

The dashed part of the orbit path shows where the satellite is in the earth's shadow,  

DLR